| time (UTC) | temp F | wind direction | speed MPH | gust MPH | rain 1hr in | rain 24hr in | rain mn in | humidity % | barometer mb |
| 20260902230618 | 90 | 225 | 8.0 | 11.0 | 0.00 | 0.00 | 0.00 | 46 | 993.6 |
| 20260902230118 | 91 | 225 | 8.0 | 10.0 | 0.00 | 0.00 | 0.00 | 46 | 993.5 |
| 20260902225702 | 91 | 248 | 8.0 | 11.0 | 0.00 | 0.00 | 0.00 | 46 | 993.5 |
| 20260902225120 | 92 | 0 | 9.0 | 12.0 | 0.00 | 0.00 | 0.00 | 45 | 993.5 |
| 20260902224620 | 92 | 225 | 7.0 | 10.0 | 0.00 | 0.00 | 0.00 | 45 | 993.5 |
| 20260902224118 | 92 | 225 | 8.0 | 11.0 | 0.00 | 0.00 | 0.00 | 45 | 993.6 |
| 20260902223620 | 92 | 225 | 7.0 | 9.0 | 0.00 | 0.00 | 0.00 | 45 | 993.6 |
| 20260902223120 | 92 | 225 | 8.0 | 10.0 | 0.00 | 0.00 | 0.00 | 44 | 993.7 |
| 20260902222618 | 92 | 225 | 7.0 | 10.0 | 0.00 | 0.00 | 0.00 | 44 | 993.6 |
| 20260902222118 | 92 | 248 | 7.0 | 9.0 | 0.00 | 0.00 | 0.00 | 44 | 993.6 |
| 20260902221641 | 93 | 225 | 7.0 | 10.0 | 0.00 | 0.00 | 0.00 | 45 | 993.7 |
| 20260902221119 | 93 | 225 | 11.0 | 13.0 | 0.00 | 0.00 | 0.00 | 44 | 993.8 |
| 20260902220618 | 93 | 0 | 9.0 | 13.0 | 0.00 | 0.00 | 0.00 | 44 | 993.8 |
| 20260902220118 | 94 | 225 | 9.0 | 13.0 | 0.00 | 0.00 | 0.00 | 43 | 993.8 |
| 20260902215638 | 94 | 248 | 6.0 | 7.0 | 0.00 | 0.00 | 0.00 | 42 | 993.6 |
| 20260902215118 | 94 | 248 | 6.0 | 8.0 | 0.00 | 0.00 | 0.00 | 41 | 993.7 |
| 20260902214621 | 94 | 248 | 5.0 | 7.0 | 0.00 | 0.00 | 0.00 | 42 | 993.8 |
| 20260902214201 | 94 | 225 | 6.0 | 9.0 | 0.00 | 0.00 | 0.00 | 43 | 993.8 |
| 20260902213620 | 94 | 225 | 9.0 | 11.0 | 0.00 | 0.00 | 0.00 | 42 | 993.8 |
| 20260902213120 | 94 | 225 | 7.0 | 11.0 | 0.00 | 0.00 | 0.00 | 42 | 993.8 |
| 20260902212619 | 94 | 248 | 9.0 | 12.0 | 0.00 | 0.00 | 0.00 | 42 | 993.9 |
| 20260902212119 | 93 | 248 | 9.0 | 11.0 | 0.00 | 0.00 | 0.00 | 43 | 993.9 |
| 20260902211642 | 93 | 248 | 5.0 | 7.0 | 0.00 | 0.00 | 0.00 | 43 | 993.9 |
| 20260902211118 | 93 | 0 | 13.0 | 15.0 | 0.00 | 0.00 | 0.00 | 44 | 994.0 |
| 20260902210640 | 93 | 0 | 9.0 | 12.0 | 0.00 | 0.00 | 0.00 | 44 | 994.0 |
| 20260902210118 | 93 | 0 | 9.0 | 13.0 | 0.00 | 0.00 | 0.00 | 44 | 994.0 |
| 20260902205618 | 93 | 0 | 10.0 | 14.0 | 0.00 | 0.00 | 0.00 | 43 | 994.1 |
| 20260902205118 | 93 | 225 | 5.0 | 7.0 | 0.00 | 0.00 | 0.00 | 43 | 994.2 |
| 20260902204620 | 93 | 0 | 11.0 | 12.0 | 0.00 | 0.00 | 0.00 | 44 | 994.2 |
| 20260902204118 | 93 | 0 | 13.0 | 17.0 | 0.00 | 0.00 | 0.00 | 44 | 994.2 |
| 20260902203619 | 93 | 0 | 11.0 | 18.0 | 0.00 | 0.00 | 0.00 | 44 | 994.3 |
| 20260902203138 | 93 | 0 | 9.0 | 10.0 | 0.00 | 0.00 | 0.00 | 45 | 994.4 |
| 20260902202618 | 93 | 0 | 12.0 | 16.0 | 0.00 | 0.00 | 0.00 | 45 | 994.4 |
| 20260902202138 | 93 | 0 | 12.0 | 14.0 | 0.00 | 0.00 | 0.00 | 44 | 994.5 |
| 20260902201618 | 93 | 0 | 12.0 | 15.0 | 0.00 | 0.00 | 0.00 | 44 | 994.6 |
| 20260902201118 | 93 | 0 | 10.0 | 13.0 | 0.00 | 0.00 | 0.00 | 45 | 994.6 |
| 20260902200618 | 93 | 0 | 12.0 | 16.0 | 0.00 | 0.00 | 0.00 | 45 | 994.6 |
| 20260902200118 | 93 | 0 | 11.0 | 14.0 | 0.00 | 0.00 | 0.00 | 46 | 994.6 |
| 20260902195618 | 93 | 0 | 9.0 | 15.0 | 0.00 | 0.00 | 0.00 | 45 | 994.6 |
| 20260902195140 | 94 | 0 | 9.0 | 13.0 | 0.00 | 0.00 | 0.00 | 45 | 994.8 |
| 20260902194618 | 94 | 225 | 7.0 | 9.0 | 0.00 | 0.00 | 0.00 | 44 | 994.8 |
| 20260902194122 | 93 | 225 | 6.0 | 8.0 | 0.00 | 0.00 | 0.00 | 45 | 994.9 |
| 20260902193621 | 93 | 225 | 10.0 | 12.0 | 0.00 | 0.00 | 0.00 | 44 | 994.8 |
| 20260902193120 | 94 | 225 | 7.0 | 9.0 | 0.00 | 0.00 | 0.00 | 44 | 995.0 |
| 20260902192617 | 94 | 225 | 8.0 | 11.0 | 0.00 | 0.00 | 0.00 | 44 | 995.0 |
| 20260902192121 | 94 | 225 | 5.0 | 6.0 | 0.00 | 0.00 | 0.00 | 43 | 995.1 |
| 20260902191617 | 94 | 0 | 8.0 | 10.0 | 0.00 | 0.00 | 0.00 | 45 | 995.2 |
| 20260902191120 | 94 | 0 | 7.0 | 10.0 | 0.00 | 0.00 | 0.00 | 45 | 995.2 |
| 20260902190618 | 93 | 248 | 4.0 | 6.0 | 0.00 | 0.00 | 0.00 | 43 | 995.2 |
| 20260902190120 | 93 | 0 | 9.0 | 11.0 | 0.00 | 0.00 | 0.00 | 44 | 995.2 |
| 20260902185641 | 93 | 248 | 7.0 | 11.0 | 0.00 | 0.00 | 0.00 | 45 | 995.2 |
| 20260902185122 | 92 | 225 | 7.0 | 11.0 | 0.00 | 0.00 | 0.00 | 46 | 995.4 |
| 20260902184637 | 92 | 225 | 6.0 | 9.0 | 0.00 | 0.00 | 0.00 | 45 | 995.3 |
| 20260902184118 | 91 | 225 | 3.0 | 3.0 | 0.00 | 0.00 | 0.00 | 46 | 995.4 |
| 20260902183620 | 91 | 225 | 2.0 | 3.0 | 0.00 | 0.00 | 0.00 | 45 | 995.5 |
| 20260902183117 | 91 | 248 | 3.0 | 4.0 | 0.00 | 0.00 | 0.00 | 48 | 995.5 |
| 20260902182618 | 91 | 225 | 4.0 | 5.0 | 0.00 | 0.00 | 0.00 | 49 | 995.6 |
| 20260902182220 | 91 | 203 | 4.0 | 6.0 | 0.00 | 0.00 | 0.00 | 48 | 995.6 |
| 20260902181620 | 91 | 0 | 9.0 | 11.0 | 0.00 | 0.00 | 0.00 | 48 | 995.6 |
| 20260902181119 | 92 | 0 | 10.0 | 12.0 | 0.00 | 0.00 | 0.00 | 47 | 995.7 |
| 20260902180620 | 92 | 0 | 8.0 | 10.0 | 0.00 | 0.00 | 0.00 | 47 | 995.8 |
| 20260902180119 | 92 | 225 | 2.0 | 3.0 | 0.00 | 0.00 | 0.00 | 47 | 995.8 |
| 20260902175620 | 91 | 225 | 2.0 | 4.0 | 0.00 | 0.00 | 0.00 | 46 | 995.9 |
| 20260902175139 | 91 | 225 | 3.0 | 4.0 | 0.00 | 0.00 | 0.00 | 46 | 995.9 |
| 20260902174621 | 91 | 225 | 5.0 | 7.0 | 0.00 | 0.00 | 0.00 | 47 | 995.9 |
| 20260902174119 | 91 | 248 | 6.0 | 9.0 | 0.00 | 0.00 | 0.00 | 48 | 996.1 |
| 20260902173619 | 90 | 248 | 4.0 | 6.0 | 0.00 | 0.00 | 0.00 | 49 | 996.2 |
| 20260902173119 | 90 | 248 | 3.0 | 6.0 | 0.00 | 0.00 | 0.00 | 50 | 996.3 |
| 20260902172617 | 90 | 0 | 5.0 | 8.0 | 0.00 | 0.00 | 0.00 | 49 | 996.4 |
| 20260902172120 | 90 | 0 | 6.0 | 11.0 | 0.00 | 0.00 | 0.00 | 49 | 996.4 |
| 20260902171620 | 89 | 225 | 7.0 | 10.0 | 0.00 | 0.00 | 0.00 | 50 | 996.4 |
| 20260902171121 | 89 | 225 | 2.0 | 4.0 | 0.00 | 0.00 | 0.00 | 50 | 996.5 |
| 20260902170617 | 89 | 0 | 6.0 | 7.0 | 0.00 | 0.00 | 0.00 | 51 | 996.5 |
| 20260902170117 | 88 | 0 | 4.0 | 6.0 | 0.00 | 0.00 | 0.00 | 50 | 996.7 |
| 20260902165637 | 88 | 248 | 4.0 | 5.0 | 0.00 | 0.00 | 0.00 | 51 | 996.9 |
| 20260902165117 | 88 | 225 | 4.0 | 5.0 | 0.00 | 0.00 | 0.00 | 50 | 997.0 |
| 20260902164617 | 88 | 225 | 5.0 | 6.0 | 0.00 | 0.00 | 0.00 | 50 | 997.0 |
| 20260902164117 | 88 | 0 | 4.0 | 5.0 | 0.00 | 0.00 | 0.00 | 49 | 997.0 |
| 20260902163637 | 88 | 203 | 4.0 | 4.0 | 0.00 | 0.00 | 0.00 | 50 | 996.9 |
| 20260902163157 | 89 | 0 | 5.0 | 6.0 | 0.00 | 0.00 | 0.00 | 50 | 997.0 |
| 20260902162618 | 89 | 225 | 3.0 | 5.0 | 0.00 | 0.00 | 0.00 | 49 | 997.0 |
| 20260902162117 | 89 | 225 | 2.0 | 2.0 | 0.00 | 0.00 | 0.00 | 48 | 997.1 |
| 20260902161620 | 89 | 225 | 2.0 | 2.0 | 0.00 | 0.00 | 0.00 | 48 | 997.0 |
| 20260902161119 | 89 | 225 | 1.0 | 2.0 | 0.00 | 0.00 | 0.00 | 50 | 997.0 |
| 20260902160617 | 88 | 225 | 2.0 | 3.0 | 0.00 | 0.00 | 0.00 | 50 | 997.0 |
| 20260902160137 | 88 | 225 | 2.0 | 3.0 | 0.00 | 0.00 | 0.00 | 50 | 997.0 |
| 20260902155619 | 88 | 225 | 3.0 | 4.0 | 0.00 | 0.00 | 0.00 | 50 | 996.9 |
| 20260902155120 | 87 | 225 | 2.0 | 4.0 | 0.00 | 0.00 | 0.00 | 50 | 996.9 |
| 20260902154620 | 87 | 225 | 4.0 | 5.0 | 0.00 | 0.00 | 0.00 | 50 | 996.9 |
| 20260902154120 | 87 | 225 | 2.0 | 3.0 | 0.00 | 0.00 | 0.00 | 50 | 996.9 |
| 20260902153617 | 87 | 0 | 4.0 | 5.0 | 0.00 | 0.00 | 0.00 | 51 | 996.9 |
| 20260902153141 | 87 | 203 | 3.0 | 4.0 | 0.00 | 0.00 | 0.00 | 51 | 996.9 |
| 20260902152620 | 87 | 0 | 4.0 | 6.0 | 0.00 | 0.00 | 0.00 | 50 | 997.0 |
| 20260902152120 | 87 | 225 | 3.0 | 4.0 | 0.00 | 0.00 | 0.00 | 49 | 997.0 |
| 20260902151620 | 88 | 225 | 4.0 | 5.0 | 0.00 | 0.00 | 0.00 | 49 | 997.0 |
| 20260902151119 | 87 | 225 | 1.0 | 3.0 | 0.00 | 0.00 | 0.00 | 50 | 996.8 |
| 20260902150640 | 87 | 225 | 1.0 | 3.0 | 0.00 | 0.00 | 0.00 | 49 | 996.7 |
| 20260902150120 | 87 | 0 | 4.0 | 5.0 | 0.00 | 0.00 | 0.00 | 49 | 996.8 |
| 20260902145620 | 87 | 225 | 4.0 | 5.0 | 0.00 | 0.00 | 0.00 | 49 | 996.8 |
| 20260902145120 | 87 | 225 | 2.0 | 4.0 | 0.00 | 0.00 | 0.00 | 49 | 996.7 |
| 20260902144617 | 87 | 0.0 | 1.0 | 0.00 | 0.00 | 0.00 | 49 | 996.7 | |
| 20260902144121 | 86 | 225 | 4.0 | 5.0 | 0.00 | 0.00 | 0.00 | 49 | 996.6 |
| 20260902143620 | 86 | 225 | 2.0 | 3.0 | 0.00 | 0.00 | 0.00 | 49 | 996.6 |
| 20260902143120 | 86 | 225 | 3.0 | 5.0 | 0.00 | 0.00 | 0.00 | 48 | 996.7 |
| 20260902142620 | 86 | 225 | 2.0 | 3.0 | 0.00 | 0.00 | 0.00 | 48 | 996.6 |
| 20260902142117 | 85 | 225 | 2.0 | 3.0 | 0.00 | 0.00 | 0.00 | 48 | 996.6 |
| 20260902141620 | 85 | 225 | 1.0 | 2.0 | 0.00 | 0.00 | 0.00 | 47 | 996.6 |
| 20260902141137 | 85 | 248 | 2.0 | 4.0 | 0.00 | 0.00 | 0.00 | 47 | 996.6 |
| 20260902140617 | 85 | 225 | 4.0 | 6.0 | 0.00 | 0.00 | 0.00 | 47 | 996.5 |
| 20260902140117 | 85 | 248 | 4.0 | 6.0 | 0.00 | 0.00 | 0.00 | 46 | 996.6 |
| 20260902135619 | 84 | 225 | 5.0 | 6.0 | 0.00 | 0.00 | 0.00 | 46 | 996.6 |
| 20260902135117 | 84 | 225 | 7.0 | 8.0 | 0.00 | 0.00 | 0.00 | 46 | 996.6 |
| 20260902134620 | 84 | 225 | 6.0 | 9.0 | 0.00 | 0.00 | 0.00 | 45 | 996.6 |
| 20260902134119 | 83 | 248 | 4.0 | 5.0 | 0.00 | 0.00 | 0.00 | 45 | 996.6 |
| 20260902133619 | 83 | 0.0 | 0.0 | 0.00 | 0.00 | 0.00 | 45 | 996.7 | |
| 20260902133119 | 82 | 225 | 6.0 | 8.0 | 0.00 | 0.00 | 0.00 | 44 | 996.6 |
| 20260902132618 | 82 | 225 | 2.0 | 4.0 | 0.00 | 0.00 | 0.00 | 44 | 996.7 |
| 20260902132139 | 81 | 225 | 5.0 | 7.0 | 0.00 | 0.00 | 0.00 | 44 | 996.5 |
| 20260902131619 | 81 | 248 | 5.0 | 8.0 | 0.00 | 0.00 | 0.00 | 44 | 996.5 |
| 20260902131119 | 80 | 225 | 4.0 | 6.0 | 0.00 | 0.00 | 0.00 | 44 | 996.6 |
| 20260902130619 | 80 | 225 | 5.0 | 8.0 | 0.00 | 0.00 | 0.00 | 44 | 996.6 |
| 20260902130119 | 79 | 248 | 6.0 | 10.0 | 0.00 | 0.00 | 0.00 | 45 | 996.5 |
| 20260902125619 | 79 | 225 | 6.0 | 8.0 | 0.00 | 0.00 | 0.00 | 45 | 996.6 |
| 20260902125119 | 78 | 0 | 6.0 | 8.0 | 0.00 | 0.00 | 0.00 | 45 | 996.6 |
| 20260902124618 | 78 | 0 | 5.0 | 8.0 | 0.00 | 0.00 | 0.00 | 45 | 996.6 |
| 20260902124118 | 78 | 0 | 4.0 | 6.0 | 0.00 | 0.00 | 0.00 | 45 | 996.7 |
| 20260902123617 | 78 | 225 | 3.0 | 4.0 | 0.00 | 0.00 | 0.00 | 46 | 996.7 |
| 20260902123117 | 78 | 0 | 2.0 | 5.0 | 0.00 | 0.00 | 0.00 | 46 | 996.7 |
| 20260902122616 | 78 | 0 | 4.0 | 6.0 | 0.00 | 0.00 | 0.00 | 46 | 996.7 |
| 20260902122117 | 78 | 0 | 5.0 | 6.0 | 0.00 | 0.00 | 0.00 | 46 | 996.7 |
| 20260902121617 | 78 | 248 | 4.0 | 5.0 | 0.00 | 0.00 | 0.00 | 46 | 996.7 |
| 20260902121137 | 78 | 0 | 4.0 | 5.0 | 0.00 | 0.00 | 0.00 | 46 | 996.6 |
| 20260902120616 | 78 | 0 | 5.0 | 6.0 | 0.00 | 0.00 | 0.00 | 46 | 996.6 |
| 20260902120137 | 77 | 0 | 4.0 | 4.0 | 0.00 | 0.00 | 0.00 | 47 | 996.6 |
| 20260902115617 | 77 | 225 | 4.0 | 5.0 | 0.00 | 0.00 | 0.00 | 47 | 996.5 |
| 20260902115118 | 77 | 225 | 3.0 | 4.0 | 0.00 | 0.00 | 0.00 | 47 | 996.5 |
| 20260902114616 | 77 | 0.0 | 0.0 | 0.00 | 0.00 | 0.00 | 47 | 996.4 | |
| 20260902114117 | 77 | 0.0 | 0.0 | 0.00 | 0.00 | 0.00 | 47 | 996.3 | |
| 20260902113617 | 77 | 0.0 | 0.0 | 0.00 | 0.00 | 0.00 | 47 | 996.3 | |
| 20260902113116 | 77 | 0.0 | 0.0 | 0.00 | 0.00 | 0.00 | 47 | 996.3 | |
| 20260902112617 | 77 | 0.0 | 0.0 | 0.00 | 0.00 | 0.00 | 47 | 996.2 | |
| 20260902112157 | 77 | 225 | 1.0 | 2.0 | 0.00 | 0.00 | 0.00 | 47 | 996.1 |
| 20260902111616 | 77 | 0.0 | 1.0 | 0.00 | 0.00 | 0.00 | 47 | 996.1 | |
| 20260902111116 | 76 | 225 | 3.0 | 4.0 | 0.00 | 0.00 | 0.00 | 47 | 996.1 |
| 20260902110616 | 77 | 225 | 2.0 | 4.0 | 0.00 | 0.00 | 0.00 | 47 | 996.1 |
| 20260902110159 | 77 | 225 | 3.0 | 4.0 | 0.00 | 0.00 | 0.00 | 47 | 996.0 |
| 20260902105617 | 76 | 225 | 5.0 | 6.0 | 0.00 | 0.00 | 0.00 | 47 | 995.9 |
| 20260902105118 | 77 | 225 | 6.0 | 8.0 | 0.00 | 0.00 | 0.00 | 47 | 995.9 |
| 20260902104616 | 77 | 225 | 7.0 | 10.0 | 0.00 | 0.00 | 0.00 | 47 | 995.9 |
| 20260902104136 | 76 | 0 | 8.0 | 10.0 | 0.00 | 0.00 | 0.00 | 47 | 996.0 |
| 20260902103616 | 77 | 0 | 8.0 | 10.0 | 0.00 | 0.00 | 0.00 | 47 | 995.8 |
| 20260902103117 | 77 | 225 | 8.0 | 10.0 | 0.00 | 0.00 | 0.00 | 47 | 995.8 |
| 20260902102637 | 77 | 0 | 7.0 | 9.0 | 0.00 | 0.00 | 0.00 | 47 | 995.9 |
| 20260902102116 | 77 | 0 | 7.0 | 9.0 | 0.00 | 0.00 | 0.00 | 47 | 995.9 |
| 20260902101617 | 77 | 225 | 7.0 | 9.0 | 0.00 | 0.00 | 0.00 | 47 | 995.9 |
| 20260902101116 | 77 | 225 | 8.0 | 10.0 | 0.00 | 0.00 | 0.00 | 48 | 995.9 |
| 20260902100616 | 77 | 0 | 6.0 | 9.0 | 0.00 | 0.00 | 0.00 | 48 | 996.0 |
| 20260902100117 | 77 | 0 | 5.0 | 8.0 | 0.00 | 0.00 | 0.00 | 48 | 996.0 |
| 20260902095636 | 77 | 0 | 7.0 | 9.0 | 0.00 | 0.00 | 0.00 | 48 | 996.0 |
| 20260902095117 | 77 | 0 | 4.0 | 7.0 | 0.00 | 0.00 | 0.00 | 48 | 996.0 |
| 20260902094616 | 76 | 203 | 5.0 | 7.0 | 0.00 | 0.00 | 0.00 | 48 | 996.0 |
| 20260902094116 | 77 | 0 | 6.0 | 9.0 | 0.00 | 0.00 | 0.00 | 48 | 996.0 |
| 20260902093618 | 77 | 0 | 6.0 | 9.0 | 0.00 | 0.00 | 0.00 | 48 | 996.0 |
| 20260902093116 | 77 | 0 | 5.0 | 7.0 | 0.00 | 0.00 | 0.00 | 48 | 996.0 |
| 20260902092637 | 77 | 0 | 6.0 | 8.0 | 0.00 | 0.00 | 0.00 | 48 | 996.0 |
| 20260902092117 | 77 | 0 | 6.0 | 8.0 | 0.00 | 0.00 | 0.00 | 48 | 996.0 |
| 20260902091616 | 77 | 0 | 7.0 | 8.0 | 0.00 | 0.00 | 0.00 | 47 | 996.1 |
| 20260902091116 | 77 | 0 | 6.0 | 9.0 | 0.00 | 0.00 | 0.00 | 48 | 996.0 |
| 20260902090617 | 77 | 203 | 5.0 | 8.0 | 0.00 | 0.00 | 0.00 | 48 | 995.9 |
| 20260902090117 | 77 | 0 | 4.0 | 8.0 | 0.00 | 0.00 | 0.00 | 48 | 996.0 |
| 20260902085637 | 77 | 203 | 4.0 | 6.0 | 0.00 | 0.00 | 0.00 | 48 | 996.0 |
| 20260902085116 | 77 | 0 | 3.0 | 5.0 | 0.00 | 0.00 | 0.00 | 48 | 996.0 |
| 20260902084616 | 77 | 180 | 1.0 | 3.0 | 0.00 | 0.00 | 0.00 | 48 | 996.0 |
| 20260902084117 | 77 | 180 | 2.0 | 3.0 | 0.00 | 0.00 | 0.00 | 48 | 996.0 |
| 20260902083616 | 77 | 0 | 1.0 | 3.0 | 0.00 | 0.00 | 0.00 | 48 | 996.1 |
| 20260902083136 | 77 | 0.0 | 0.0 | 0.00 | 0.00 | 0.00 | 48 | 996.2 | |
| 20260902082619 | 77 | 0.0 | 0.0 | 0.00 | 0.00 | 0.00 | 48 | 996.1 | |
| 20260902082119 | 76 | 0.0 | 0.0 | 0.00 | 0.00 | 0.00 | 49 | 996.2 | |
| 20260902081619 | 76 | 0.0 | 0.0 | 0.00 | 0.00 | 0.00 | 49 | 996.2 | |
| 20260902081139 | 76 | 0.0 | 0.0 | 0.00 | 0.00 | 0.00 | 49 | 996.1 | |
| 20260902080619 | 76 | 0.0 | 0.0 | 0.00 | 0.00 | 0.00 | 49 | 996.0 | |
| 20260902080119 | 76 | 0.0 | 0.0 | 0.00 | 0.00 | 0.00 | 49 | 996.0 | |
| 20260902075619 | 76 | 0.0 | 0.0 | 0.00 | 0.00 | 0.00 | 49 | 996.0 | |
| 20260902075119 | 76 | 0.0 | 0.0 | 0.00 | 0.00 | 0.00 | 49 | 995.9 | |
| 20260902074618 | 76 | 0.0 | 0.0 | 0.00 | 0.00 | 0.00 | 49 | 995.8 | |
| 20260902074118 | 76 | 0.0 | 0.0 | 0.00 | 0.00 | 0.00 | 49 | 995.8 | |
| 20260902073639 | 76 | 0.0 | 0.0 | 0.00 | 0.00 | 0.00 | 49 | 995.8 | |
| 20260902073118 | 76 | 0.0 | 0.0 | 0.00 | 0.00 | 0.00 | 49 | 995.7 | |
| 20260902072618 | 76 | 0.0 | 0.0 | 0.00 | 0.00 | 0.00 | 49 | 995.7 | |
| 20260902072119 | 76 | 0.0 | 0.0 | 0.00 | 0.00 | 0.00 | 49 | 995.7 | |
| 20260902071639 | 76 | 0.0 | 0.0 | 0.00 | 0.00 | 0.00 | 49 | 995.8 | |
| 20260902071118 | 76 | 0.0 | 0.0 | 0.00 | 0.00 | 0.00 | 49 | 995.9 | |
| 20260902070618 | 76 | 0.0 | 0.0 | 0.00 | 0.00 | 0.00 | 49 | 995.9 | |
| 20260902070138 | 76 | 0.0 | 0.0 | 0.00 | 0.00 | 0.00 | 49 | 995.9 | |
| 20260902065619 | 76 | 0.0 | 0.0 | 0.00 | 0.00 | 0.00 | 50 | 995.9 | |
| 20260902065118 | 76 | 0.0 | 0.0 | 0.00 | 0.00 | 0.00 | 50 | 995.9 | |
| 20260902064619 | 76 | 0.0 | 0.0 | 0.00 | 0.00 | 0.00 | 50 | 996.0 | |
| 20260902064118 | 76 | 0.0 | 0.0 | 0.00 | 0.00 | 0.00 | 50 | 995.9 | |
| 20260902063619 | 76 | 0.0 | 0.0 | 0.00 | 0.00 | 0.00 | 50 | 995.9 | |
| 20260902063118 | 76 | 0.0 | 0.0 | 0.00 | 0.00 | 0.00 | 50 | 995.9 | |
| 20260902062618 | 76 | 0.0 | 0.0 | 0.00 | 0.00 | 0.00 | 51 | 996.0 | |
| 20260902062118 | 76 | 0.0 | 0.0 | 0.00 | 0.00 | 0.00 | 51 | 996.0 | |
| 20260902061618 | 76 | 0.0 | 0.0 | 0.00 | 0.00 | 0.00 | 51 | 996.1 | |
| 20260902061118 | 76 | 0.0 | 0.0 | 0.00 | 0.00 | 0.00 | 51 | 996.1 | |
| 20260902060639 | 76 | 0.0 | 0.0 | 0.00 | 0.00 | 0.00 | 51 | 996.1 | |
| 20260902060118 | 76 | 0.0 | 0.0 | 0.00 | 0.00 | 0.00 | 51 | 996.1 | |
| 20260902055618 | 76 | 0.0 | 0.0 | 0.00 | 0.00 | 0.00 | 51 | 996.1 | |
| 20260902055118 | 76 | 0.0 | 0.0 | 0.00 | 0.00 | 0.00 | 51 | 996.3 | |
| 20260902054618 | 76 | 0.0 | 0.0 | 0.00 | 0.00 | 0.00 | 51 | 996.4 | |
| 20260902054120 | 76 | 0.0 | 0.0 | 0.00 | 0.00 | 0.00 | 51 | 996.2 | |
| 20260902053621 | 76 | 0.0 | 0.0 | 0.00 | 0.00 | 0.00 | 51 | 996.2 | |
| 20260902053120 | 76 | 0.0 | 0.0 | 0.00 | 0.00 | 0.00 | 51 | 996.2 | |
| 20260902052618 | 76 | 0.0 | 0.0 | 0.00 | 0.00 | 0.00 | 51 | 996.2 | |
| 20260902052121 | 76 | 0.0 | 0.0 | 0.00 | 0.00 | 0.00 | 51 | 996.1 | |
| 20260902051620 | 77 | 0.0 | 0.0 | 0.00 | 0.00 | 0.00 | 51 | 996.0 | |
| 20260902051118 | 77 | 0.0 | 0.0 | 0.00 | 0.00 | 0.00 | 51 | 996.1 | |
| 20260902050642 | 77 | 0.0 | 0.0 | 0.00 | 0.00 | 0.00 | 51 | 996.0 | |
| 20260902050118 | 77 | 0.0 | 0.0 | 0.00 | 0.00 | 0.00 | 51 | 996.0 | |
| 20260902045700 | 77 | 0.0 | 0.0 | 0.00 | 0.00 | 0.00 | 51 | 996.1 | |
| 20260902045121 | 77 | 0.0 | 0.0 | 0.00 | 0.00 | 0.00 | 51 | 995.9 | |
| 20260902044640 | 77 | 0.0 | 0.0 | 0.00 | 0.00 | 0.00 | 51 | 996.0 | |
| 20260902044118 | 77 | 0.0 | 0.0 | 0.00 | 0.00 | 0.00 | 51 | 995.9 | |
| 20260902043621 | 77 | 0.0 | 0.0 | 0.00 | 0.00 | 0.00 | 51 | 995.9 | |
| 20260902043120 | 77 | 0.0 | 0.0 | 0.00 | 0.00 | 0.00 | 50 | 995.8 | |
| 20260902042620 | 77 | 0.0 | 0.0 | 0.00 | 0.00 | 0.00 | 50 | 995.8 | |
| 20260902042120 | 77 | 0.0 | 0.0 | 0.00 | 0.00 | 0.00 | 50 | 995.8 | |
| 20260902041621 | 77 | 0.0 | 0.0 | 0.00 | 0.00 | 0.00 | 50 | 995.8 | |
| 20260902041141 | 77 | 0.0 | 0.0 | 0.00 | 0.00 | 0.00 | 50 | 995.8 | |
| 20260902040620 | 77 | 0.0 | 0.0 | 0.00 | 0.00 | 0.00 | 50 | 995.7 | |
| 20260902040138 | 77 | 0.0 | 0.0 | 0.00 | 0.00 | 0.00 | 50 | 995.7 | |
| 20260902035640 | 77 | 0.0 | 0.0 | 0.00 | 0.00 | 0.00 | 50 | 995.7 | |
| 20260902035118 | 77 | 0.0 | 0.0 | 0.00 | 0.00 | 0.00 | 50 | 995.6 | |
| 20260902034620 | 77 | 0.0 | 0.0 | 0.00 | 0.00 | 0.00 | 50 | 995.4 | |
| 20260902034158 | 77 | 0.0 | 0.0 | 0.00 | 0.00 | 0.00 | 50 | 995.3 | |
| 20260902033620 | 77 | 0.0 | 0.0 | 0.00 | 0.00 | 0.00 | 50 | 995.2 | |
| 20260902033118 | 78 | 0.0 | 0.0 | 0.00 | 0.00 | 0.00 | 50 | 995.4 | |
| 20260902032620 | 78 | 0.0 | 0.0 | 0.00 | 0.00 | 0.00 | 50 | 995.3 | |
| 20260902032139 | 78 | 0.0 | 0.0 | 0.00 | 0.00 | 0.00 | 50 | 995.3 | |
| 20260902031621 | 78 | 0.0 | 0.0 | 0.00 | 0.00 | 0.00 | 50 | 995.3 | |
| 20260902031121 | 78 | 0.0 | 0.0 | 0.00 | 0.00 | 0.00 | 50 | 995.4 | |
| 20260902030640 | 78 | 0.0 | 0.0 | 0.00 | 0.00 | 0.00 | 50 | 995.3 | |
| 20260902030140 | 78 | 0.0 | 0.0 | 0.00 | 0.00 | 0.00 | 50 | 995.5 | |
| 20260902025618 | 78 | 0.0 | 0.0 | 0.00 | 0.00 | 0.00 | 50 | 995.6 | |
| 20260902025120 | 79 | 0.0 | 0.0 | 0.00 | 0.00 | 0.00 | 50 | 995.6 | |
| 20260902024620 | 79 | 0.0 | 0.0 | 0.00 | 0.00 | 0.00 | 50 | 995.6 | |
| 20260902024118 | 79 | 0.0 | 0.0 | 0.00 | 0.00 | 0.00 | 49 | 995.6 | |
| 20260902023620 | 78 | 0.0 | 0.0 | 0.00 | 0.00 | 0.00 | 49 | 995.6 | |
| 20260902023118 | 78 | 0.0 | 0.0 | 0.00 | 0.00 | 0.00 | 49 | 995.5 | |
| 20260902022617 | 78 | 0.0 | 0.0 | 0.00 | 0.00 | 0.00 | 49 | 995.7 | |
| 20260902022118 | 78 | 0.0 | 0.0 | 0.00 | 0.00 | 0.00 | 50 | 995.7 | |
| 20260902021618 | 78 | 0.0 | 0.0 | 0.00 | 0.00 | 0.00 | 50 | 995.8 | |
| 20260902021138 | 78 | 0.0 | 0.0 | 0.00 | 0.00 | 0.00 | 50 | 995.7 | |
| 20260902020638 | 78 | 0.0 | 0.0 | 0.00 | 0.00 | 0.00 | 50 | 995.8 | |
| 20260902020118 | 79 | 0.0 | 0.0 | 0.00 | 0.00 | 0.00 | 50 | 995.9 | |
| 20260902015638 | 79 | 0.0 | 0.0 | 0.00 | 0.00 | 0.00 | 51 | 995.9 | |
| 20260902015118 | 79 | 0.0 | 0.0 | 0.00 | 0.00 | 0.00 | 51 | 995.8 | |
| 20260902014658 | 79 | 0.0 | 0.0 | 0.00 | 0.00 | 0.00 | 51 | 995.8 | |
| 20260902014119 | 79 | 0.0 | 0.0 | 0.00 | 0.00 | 0.00 | 51 | 995.7 | |
| 20260902013638 | 79 | 0.0 | 0.0 | 0.00 | 0.00 | 0.00 | 51 | 995.7 | |
| 20260902013139 | 79 | 0.0 | 0.0 | 0.00 | 0.00 | 0.00 | 52 | 995.6 | |
| 20260902012618 | 79 | 0.0 | 0.0 | 0.00 | 0.00 | 0.00 | 52 | 995.5 | |
| 20260902012118 | 79 | 0.0 | 0.0 | 0.00 | 0.00 | 0.00 | 52 | 995.6 | |
| 20260902011618 | 79 | 0.0 | 0.0 | 0.00 | 0.00 | 0.00 | 53 | 995.6 | |
| 20260902011118 | 79 | 0.0 | 0.0 | 0.00 | 0.00 | 0.00 | 53 | 995.5 | |
| 20260902010617 | 79 | 0.0 | 0.0 | 0.00 | 0.00 | 0.00 | 53 | 995.5 | |
| 20260902010118 | 79 | 0.0 | 0.0 | 0.00 | 0.00 | 0.00 | 54 | 995.5 | |
| 20260902005618 | 79 | 0.0 | 0.0 | 0.00 | 0.00 | 0.00 | 54 | 995.3 | |
| 20260902005159 | 80 | 0.0 | 0.0 | 0.00 | 0.00 | 0.00 | 55 | 995.3 | |
| 20260902004618 | 80 | 0.0 | 0.0 | 0.00 | 0.00 | 0.00 | 55 | 995.2 | |
| 20260902004138 | 80 | 0.0 | 0.0 | 0.00 | 0.00 | 0.00 | 55 | 995.2 | |
| 20260902003618 | 80 | 0.0 | 0.0 | 0.00 | 0.00 | 0.00 | 55 | 995.1 | |
| 20260902003117 | 80 | 0.0 | 0.0 | 0.00 | 0.00 | 0.00 | 56 | 995.1 | |
| 20260902002618 | 80 | 0.0 | 0.0 | 0.00 | 0.00 | 0.00 | 56 | 995.1 | |
| 20260902002118 | 80 | 0.0 | 0.0 | 0.00 | 0.00 | 0.00 | 56 | 995.0 | |
| 20260902001617 | 80 | 0.0 | 1.0 | 0.00 | 0.00 | 0.00 | 56 | 994.9 | |
| 20260902001117 | 81 | 225 | 1.0 | 2.0 | 0.00 | 0.00 | 0.00 | 55 | 995.0 |
| 20260902000637 | 81 | 225 | 3.0 | 4.0 | 0.00 | 0.00 | 0.00 | 55 | 994.9 |
| 20260902000118 | 81 | 0 | 4.0 | 6.0 | 0.00 | 0.00 | 0.00 | 55 | 994.9 |
| 20260901235621 | 81 | 225 | 5.0 | 6.0 | 0.00 | 0.00 | 0.00 | 55 | 995.0 |
| 20260901235140 | 81 | 225 | 6.0 | 7.0 | 0.00 | 0.00 | 0.00 | 54 | 995.0 |
| 20260901234620 | 82 | 0 | 6.0 | 8.0 | 0.00 | 0.00 | 0.00 | 54 | 995.0 |
| 20260901234118 | 82 | 0 | 6.0 | 9.0 | 0.00 | 0.00 | 0.00 | 53 | 995.1 |
| 20260901233620 | 82 | 225 | 5.0 | 5.0 | 0.00 | 0.00 | 0.00 | 53 | 995.3 |
| 20260901233120 | 82 | 225 | 3.0 | 3.0 | 0.00 | 0.00 | 0.00 | 53 | 995.4 |
| 20260901232617 | 82 | 225 | 3.0 | 4.0 | 0.00 | 0.00 | 0.00 | 52 | 995.3 |
| 20260901232121 | 82 | 225 | 2.0 | 3.0 | 0.00 | 0.00 | 0.00 | 51 | 995.3 |
| 20260901231617 | 82 | 225 | 3.0 | 4.0 | 0.00 | 0.00 | 0.00 | 51 | 995.3 |
| 20260901231141 | 82 | 225 | 3.0 | 3.0 | 0.00 | 0.00 | 0.00 | 51 | 995.3 |